Weather History for KABI - September, 2011

Change the Weather History Date:

Friday, September 23, 2011

  Actual Average Record
Temperature  
Mean Temperature 68 °F 73 °F  
Max Temperature 87 °F 84 °F 99 °F (1926)
Min Temperature 49 °F 62 °F 44 °F (1989)
Degree Days  
Heating Degree Days 0 1  
Month to date heating degree days 0 4  
Since 1 July heating degree days 0 4  
Cooling Degree Days 3 9  
Month to date cooling degree days 280 274  
Year to date cooling degree days 3245 2219  
Growing Degree Days 18 (Base 50)    
Moisture  
Dew Point 47 °F    
Average Humidity 57    
Maximum Humidity 93    
Minimum Humidity 20    
Precipitation  
Precipitation 0.00 in 0.07 in 1.50 in (1971)
Month to date precipitation 0.24 1.73  
Year to date precipitation 10.63 18.69  
Sea Level Pressure  
Sea Level Pressure 30.10 in    
Wind  
Wind Speed 4 mph (SE)    
Max Wind Speed 10 mph    
Max Gust Speed 14 mph    
Visibility 10 miles    
Events      
T = Trace of Precipitation, MM = Missing Value Source: NWS Daily Summary

Daily Weather History Graph

Daily Weather History Graph

Search for Another Location

Airport or City:

Trip Planner

Search our weather history database for the weather conditions in past years. The results will help you decide how hot, cold, wet, or windy it might be!

Date:

Astronomy

Sep. 23, 2011 Rise Set
Actual Time 7:27 AM CDT 7:34 PM CDT
Civil Twilight 7:02 AM CDT 7:58 PM CDT
Nautical Twilight 6:34 AM CDT 8:27 PM CDT
Astronomical Twilight 6:05 AM CDT 8:56 PM CDT
Moon 3:10 AM CDT (9/23) 4:54 PM CDT (9/23)
Length of Visible Light 12h 55m
Length of Day
12h 06m
Waning Crescent, 19% of the Moon is Illuminated
Sep 23
Waning Crescent
Sep 27
New
Oct 3
First Quarter
Oct 11
Full
Oct 19
Last Quarter

Hourly Weather History & Observations

Time (CDT) Temp. Dew Point Humidity Pressure Visibility Wind Dir Wind Speed Gust Speed Precip Events Conditions
12:52 AM 60.1 °F 55.0 °F 83% 30.20 in 10.0 mi NE 5.8 mph - N/A   Clear
1:52 AM 57.9 °F 53.1 °F 84% 30.16 in 10.0 mi NNE 4.6 mph - N/A   Clear
2:52 AM 53.1 °F 52.0 °F 96% 30.17 in 10.0 mi South 5.8 mph - N/A   Clear
3:52 AM 55.0 °F 52.0 °F 89% 30.16 in 10.0 mi Calm Calm - N/A   Clear
4:52 AM 55.0 °F 52.0 °F 89% 30.14 in 10.0 mi Calm Calm - N/A   Clear
5:52 AM 51.1 °F 48.9 °F 92% 30.14 in 10.0 mi SE 3.5 mph - N/A   Clear
6:52 AM 50.0 °F 48.0 °F 93% 30.17 in 10.0 mi SW 3.5 mph - N/A   Clear
7:52 AM 50.0 °F 48.9 °F 96% 30.18 in 8.0 mi SSW 3.5 mph - N/A   Clear
8:52 AM 55.9 °F 53.1 °F 90% 30.19 in 10.0 mi Calm Calm - N/A   Clear
9:52 AM 63.0 °F 55.0 °F 75% 30.19 in 10.0 mi Calm Calm - N/A   Clear
10:52 AM 69.1 °F 52.0 °F 54% 30.18 in 10.0 mi Calm Calm - N/A   Clear
11:52 AM 73.9 °F 45.0 °F 35% 30.16 in 10.0 mi Variable 3.5 mph - N/A   Clear
12:52 PM 77.0 °F 44.1 °F 31% 30.13 in 10.0 mi Calm Calm - N/A   Clear
1:52 PM 80.1 °F 46.9 °F 31% 30.09 in 10.0 mi Variable 3.5 mph - N/A   Clear
2:52 PM 82.9 °F 45.0 °F 26% 30.06 in 10.0 mi Variable 4.6 mph - N/A   Clear
3:52 PM 84.9 °F 44.1 °F 24% 30.04 in 10.0 mi North 6.9 mph - N/A   Clear
4:52 PM 86.0 °F 44.1 °F 23% 30.02 in 10.0 mi North 3.5 mph - N/A   Clear
5:52 PM 84.0 °F 39.9 °F 21% 30.01 in 10.0 mi Calm Calm - N/A   Clear
6:52 PM 84.0 °F 39.0 °F 20% 30.01 in 10.0 mi Calm Calm - N/A   Clear
7:52 PM 80.1 °F 39.0 °F 23% 30.00 in 10.0 mi ESE 5.8 mph - N/A   Clear
8:52 PM 73.9 °F 39.0 °F 28% 30.01 in 10.0 mi ESE 6.9 mph - N/A   Clear
9:52 PM 68.0 °F 39.9 °F 36% 30.02 in 10.0 mi SSE 9.2 mph - N/A   Clear
10:52 PM 70.0 °F 41.0 °F 35% 30.02 in 10.0 mi SSE 6.9 mph - N/A   Clear
11:52 PM 66.9 °F 42.1 °F 40% 30.01 in 10.0 mi South 6.9 mph - N/A   Clear